Вернуться в каталог

STARLINK-3807

АктивенСвязьVLEO
NORAD 52353·PAYLOAD·🇺🇸 United States

Запущен Apr 29, 2022 с Cape Canaveral Space Force Station

Loading…

Ближайшие Пролёты (ближайшие 24 часа)

TLE

СвежийSource: CelesTrak SupGP

Эпоха: Sep 15, 2026, 02:05 UTC

1 52353C 22045Y   26258.08729167 -.00035290  00000+0 -10712-2 0  2585
2 52353  53.1593  55.1752 0001153  80.9396 231.1318 15.33555221    18

Отслеживайте STARLINK-3807 в реальном времени с AllMySat

Download on the App Store